DH2PG-6 Weather Reports


time (UTC)temp
F
wind
direction
speed
knots
gust
knots
rain 1hr
in
rain 24hr
in
rain mn
in
humidity
%
barometer
mb
20260504203933 53 157 0.0 0.0 0.00 0.08 0.00 88 1009.4
20260504203432 53 157 0.0 0.0 0.00 0.08 0.00 88 1009.5
20260504202932 53 157 0.0 0.0 0.00 0.08 0.00 89 1009.3
20260504202432 53 157 0.0 0.0 0.00 0.08 0.00 89 1009.5
20260504201932 53 135 0.0 0.0 0.00 0.08 0.00 89 1009.5
20260504201431 53 157 0.0 0.0 0.00 0.08 0.00 89 1009.6
20260504200931 53 157 0.0 0.0 0.00 0.08 0.00 89 1009.5
20260504195930 53 157 0.0 0.0 0.00 0.08 0.00 89 1009.6
20260504194930 53 157 0.0 0.0 0.00 0.08 0.00 89 1009.6
20260504194430 53 157 0.0 0.0 0.00 0.08 0.00 88 1009.5
20260504193929 53 135 0.0 0.0 0.00 0.08 0.00 88 1009.5
20260504193429 53 135 0.0 0.0 0.00 0.08 0.00 88 1009.5
20260504192929 53 135 0.0 0.0 0.00 0.08 0.00 88 1009.5
20260504192544 53 157 0.0 0.0 0.00 0.08 0.00 88 1009.4
20260504192428 53 157 0.0 0.0 0.00 0.08 0.00 88 1009.4
20260504191928 53 157 0.0 0.0 0.00 0.08 0.00 88 1009.1
20260504191428 53 157 0.0 0.0 0.00 0.08 0.00 88 1009.3
20260504190427 53 157 0.0 0.0 0.00 0.08 0.00 88 1009.2
20260504185927 53 135 0.0 0.0 0.00 0.08 0.00 87 1009.2
20260504185427 53 135 0.0 0.0 0.00 0.08 0.00 87 1009.3
20260504184926 53 135 0.0 0.0 0.00 0.08 0.00 87 1009.3
20260504184426 53 135 0.0 0.0 0.00 0.08 0.00 87 1009.2
20260504183926 53 135 0.0 0.0 0.00 0.08 0.00 87 1009.2
20260504183426 53 135 0.0 0.0 0.00 0.08 0.00 87 1009.3
20260504182925 53 157 0.0 0.0 0.00 0.08 0.00 87 1009.2
20260504182425 53 135 0.0 0.0 0.00 0.08 0.00 87 1009.3
20260504181925 53 157 0.0 0.0 0.00 0.08 0.00 87 1009.3
20260504181425 54 157 0.0 0.0 0.00 0.08 0.00 86 1009.5
20260504180924 54 135 0.0 0.0 0.00 0.08 0.00 86 1009.3
20260504175924 54 135 0.0 0.0 0.02 0.08 0.00 86 1009.4
20260504175423 54 135 0.0 0.0 0.02 0.08 0.00 86 1009.3
20260504174924 54 157 0.0 0.0 0.02 0.08 0.00 85 1009.4
20260504174423 54 135 0.0 0.0 0.04 0.08 0.00 85 1009.4
20260504173923 54 135 0.0 0.0 0.04 0.08 0.00 84 1009.6
20260504173422 55 157 0.0 0.0 0.04 0.08 0.00 84 1009.6
20260504172922 55 157 0.0 0.0 0.04 0.08 0.00 84 1009.6
20260504172422 55 157 0.0 0.0 0.04 0.08 0.00 83 1009.6
20260504171921 55 135 0.0 0.0 0.04 0.08 0.00 82 1009.6
20260504171421 56 157 0.0 0.0 0.04 0.08 0.00 82 1009.5
20260504170921 56 180 0.0 0.0 0.02 0.06 0.00 82 1009.4
20260504170421 57 157 0.0 0.0 0.02 0.06 0.00 82 1009.9
20260504160417 58 22 0.0 0.0 0.00 0.04 0.00 81 1009.9
20260504150914 55 315 0.0 0.0 0.00 0.04 0.00 81 1010.2
20260504150414 55 315 0.0 0.0 0.00 0.04 0.00 81 1010.0
20260504140911 58 247 0.0 0.0 0.00 0.04 0.00 77 1010.3
20260504140410 58 247 0.0 0.0 0.00 0.04 0.00 77 1010.4
20260504110400 60 157 0.0 0.0 0.00 0.00 0.00 73 1011.1
20260504100357 64 157 0.0 0.0 0.00 0.00 0.00 69 1010.8
20260504081851 64 180 0.0 0.0 0.00 0.00 0.00 69 1010.8
20260504081351 64 202 0.0 0.0 0.00 0.00 0.00 69 1010.7
20260504080850 64 270 0.0 0.0 0.00 0.00 0.00 70 1010.6
20260504080350 64 157 0.0 0.0 0.00 0.00 0.00 70 1010.6
20260504070347 57 157 0.0 0.0 0.00 0.00 0.00 80 1010.3
20260504050340 49 157 0.0 0.0 0.00 0.00 0.00 86 1009.9
20260504045840 49 157 0.0 0.0 0.00 0.00 0.00 86 1009.9
20260504045340 49 157 0.0 0.0 0.00 0.00 0.00 86 1009.8
20260504044839 48 157 0.0 0.0 0.00 0.00 0.00 86 1009.8
20260504044339 48 157 0.0 0.0 0.00 0.00 0.00 86 1009.8
20260504040837 48 157 0.0 0.0 0.00 0.00 0.00 85 1009.6
20260504040337 48 157 0.0 0.0 0.00 0.00 0.00 85 1009.6
20260504035836 48 157 0.0 0.0 0.00 0.00 0.00 85 1009.6
20260504035337 48 157 0.0 0.0 0.00 0.00 0.00 84 1009.6
20260504034836 48 157 0.0 0.0 0.00 0.00 0.00 84 1009.6
20260504034336 48 157 0.0 0.0 0.00 0.00 0.00 84 1009.7
20260504033335 48 157 0.0 0.0 0.00 0.00 0.00 84 1009.7
20260504032835 48 180 0.0 0.0 0.00 0.00 0.00 84 1009.7
20260504031834 48 180 0.0 0.0 0.00 0.00 0.00 84 1009.7
20260504031334 48 180 0.0 0.0 0.00 0.00 0.00 84 1009.7
20260504030834 48 180 0.0 0.0 0.00 0.00 0.00 84 1009.6
20260504030333 48 180 0.0 0.0 0.00 0.00 0.00 84 1009.7
20260504025833 48 202 0.0 0.0 0.00 0.00 0.00 84 1009.6
20260504025333 48 202 0.0 0.0 0.00 0.00 0.00 84 1009.7
20260504024832 48 202 0.0 0.0 0.00 0.00 0.00 85 1009.7
20260504024332 48 180 0.0 0.0 0.00 0.00 0.00 85 1009.8
20260504023832 48 157 0.0 0.0 0.00 0.00 0.00 85 1009.9
20260504023332 48 225 0.0 0.0 0.00 0.00 0.00 85 1009.8
20260504022831 48 180 0.0 0.0 0.00 0.00 0.00 85 1009.9
20260504022331 48 180 0.0 0.0 0.00 0.00 0.00 85 1010.0
20260504021831 48 180 0.0 0.0 0.00 0.00 0.00 85 1010.0
20260504021331 49 180 0.0 0.0 0.00 0.00 0.00 85 1010.1
20260504020830 49 180 0.0 0.0 0.00 0.00 0.00 85 1010.2
20260504020330 49 180 0.0 0.0 0.00 0.00 0.00 85 1010.1
20260504015830 49 180 0.0 0.0 0.00 0.00 0.00 84 1010.1
20260504015329 49 180 0.0 0.0 0.00 0.00 0.00 84 1010.1
20260504014829 49 180 0.0 0.0 0.00 0.00 0.00 85 1010.1
20260504014329 49 180 0.0 0.0 0.00 0.00 0.00 85 1010.1
20260504013328 49 180 0.0 0.0 0.00 0.00 0.00 85 1010.1
20260504012828 49 180 0.0 0.0 0.00 0.00 0.00 85 1010.1
20260504012328 49 202 0.0 0.0 0.00 0.00 0.00 85 1010.0
20260504011827 49 180 0.0 0.0 0.00 0.00 0.00 85 1010.0
20260504011327 49 202 0.0 0.0 0.00 0.00 0.00 85 1010.1
20260504010827 49 180 0.0 0.0 0.00 0.00 0.00 85 1010.2
20260504010327 49 180 0.0 0.0 0.00 0.00 0.00 84 1010.1
20260504005826 49 180 0.0 0.0 0.00 0.00 0.00 84 1010.1
20260504005326 49 180 0.0 0.0 0.00 0.00 0.00 84 1010.0
20260504004826 49 180 0.0 0.0 0.00 0.00 0.00 84 1009.9
20260504003825 49 180 0.0 0.0 0.00 0.00 0.00 84 1009.8
20260504003325 50 202 0.0 0.0 0.00 0.00 0.00 84 1009.9
20260504002825 50 180 0.0 0.0 0.00 0.00 0.00 84 1010.0
20260504002324 50 180 0.0 0.0 0.00 0.00 0.00 84 1010.0
20260504001824 50 157 0.0 0.0 0.00 0.00 0.00 84 1010.1
20260504001324 50 180 0.0 0.0 0.00 0.00 0.00 84 1010.0
20260504000823 50 180 0.0 0.0 0.00 0.00 0.00 84 1010.0
20260504000323 50 202 0.0 0.0 0.00 0.00 0.00 84 1010.1
20260503235823 50 202 0.0 0.0 0.00 0.00 0.00 84 1010.1
20260503235323 50 180 0.0 0.0 0.00 0.00 0.00 84 1010.0
20260503234822 50 180 0.0 0.0 0.00 0.00 0.00 84 1010.0
20260503234322 50 180 0.0 0.0 0.00 0.00 0.00 84 1010.0
20260503233322 50 202 0.0 0.0 0.00 0.00 0.00 84 1010.0
20260503232821 50 180 0.0 0.0 0.00 0.00 0.00 84 1010.1
20260503232321 50 180 0.0 0.0 0.00 0.00 0.00 84 1010.1
20260503231821 50 202 0.0 0.0 0.00 0.00 0.00 84 1010.2
20260503231320 50 157 0.0 0.0 0.00 0.00 0.00 84 1010.1
20260503230320 50 180 0.0 0.0 0.00 0.00 0.00 83 1010.2
20260503225820 50 180 0.0 0.0 0.00 0.00 0.00 83 1010.2
20260503225319 50 180 0.0 0.0 0.00 0.00 0.00 83 1010.3
20260503224819 50 225 0.0 0.0 0.00 0.00 0.00 83 1010.2
20260503224319 50 180 0.0 0.0 0.00 0.00 0.00 83 1010.3
20260503223818 50 180 0.0 0.0 0.00 0.00 0.00 83 1010.2
20260503223318 50 180 0.0 0.0 0.00 0.00 0.00 83 1010.2
20260503222318 50 202 0.0 0.0 0.00 0.00 0.00 83 1010.1
20260503221817 50 180 0.0 0.0 0.00 0.00 0.00 83 1010.0
20260503221317 50 202 0.0 0.0 0.00 0.00 0.00 82 1010.0
20260503220817 50 180 0.0 0.0 0.00 0.00 0.00 82 1010.0
20260503220316 50 180 0.0 0.0 0.00 0.00 0.00 82 1010.1
20260503214816 51 180 0.0 0.0 0.00 0.00 0.00 82 1010.0
20260503214315 51 180 0.0 0.0 0.00 0.00 0.00 82 1009.9
20260503213815 51 180 0.0 0.0 0.00 0.00 0.00 83 1010.0
20260503213315 51 180 0.0 0.0 0.00 0.00 0.00 83 1010.0
20260503212814 51 225 0.0 0.0 0.00 0.00 0.00 83 1010.1
20260503212314 51 202 0.0 0.0 0.00 0.00 0.00 83 1010.1
20260503211814 51 180 0.0 0.0 0.00 0.00 0.00 83 1010.1
20260503211314 51 180 0.0 0.0 0.00 0.00 0.00 82 1010.1
20260503210813 51 180 0.0 0.0 0.00 0.00 0.00 82 1010.2
20260503210313 51 202 0.0 0.0 0.00 0.00 0.00 82 1010.1
20260503205813 51 202 0.0 0.0 0.00 0.00 0.00 82 1010.0
20260503205312 51 180 0.0 0.0 0.00 0.00 0.00 82 1010.2
20260503204812 51 180 0.0 0.0 0.00 0.00 0.00 82 1010.0